This is the latest recevied weather packets stored in our database for station/object KA1JKB. If no packets are shown the sender has not sent any weather packets the latest 10 day(s).
| Time | Temp. | Humidity | Pressure | Rain* | Wind** | Luminosity | Snow |
|---|---|---|---|---|---|---|---|
| 1777473142 | 8.89° C | 92% | 1009.3 hPa | 0 mm | - | 204 W/m² | - |
| 1777472840 | 8.89° C | 93% | 1009.3 hPa | 0 mm | - | 171 W/m² | - |
| 1777472535 | 8.89° C | 92% | 1009.3 hPa | 0 mm | - | 178 W/m² | - |
| 1777472233 | 8.89° C | 93% | 1009.5 hPa | 0 mm | - | 115 W/m² | - |
| 1777471929 | 8.89° C | 92% | 1009.5 hPa | 0 mm | - | 101 W/m² | - |
| 1777471626 | 8.89° C | 93% | 1009.6 hPa | 0 mm | - | 107 W/m² | - |
| 1777471322 | 8.89° C | 93% | 1009.7 hPa | 0 mm | - | 92 W/m² | - |
| 1777471018 | 8.89° C | 93% | 1009.6 hPa | 0 mm | - | 101 W/m² | - |
| 1777470715 | 8.89° C | 94% | 1009.7 hPa | 0 mm | - | 92 W/m² | - |
| 1777470412 | 8.89° C | 93% | 1009.8 hPa | 0 mm | - | 69 W/m² | - |
| 1777470108 | 8.89° C | 93% | 1009.9 hPa | 0 mm | - | 72 W/m² | - |
| 1777469804 | 8.89° C | 93% | 1009.8 hPa | 0 mm | - | 61 W/m² | - |
| 1777469500 | 8.89° C | 93% | 1009.7 hPa | 0 mm | - | 54 W/m² | - |
| 1777469195 | 8.89° C | 93% | 1009.9 hPa | 0 mm | - | 83 W/m² | - |
| 1777468895 | 8.89° C | 94% | 1009.7 hPa | 0 mm | - | 101 W/m² | - |
| 1777468592 | 8.89° C | 94% | 1009.8 hPa | 0 mm | - | 106 W/m² | - |
| 1777468289 | 8.89° C | 94% | 1009.8 hPa | 0 mm | - | 98 W/m² | - |
| 1777467984 | 8.89° C | 95% | 1009.9 hPa | 0 mm | - | 117 W/m² | - |
| 1777467681 | 8.33° C | 95% | 1009.9 hPa | 0 mm | - | 96 W/m² | - |
| 1777467376 | 8.33° C | 95% | 1010.2 hPa | 0 mm | - | 81 W/m² | - |
| 1777467072 | 8.33° C | 96% | 1010 hPa | 0 mm | - | 93 W/m² | - |
| 1777466770 | 8.33° C | 96% | 1009.9 hPa | 0 mm | - | 54 W/m² | - |
| 1777466468 | 8.33° C | 96% | 1009.9 hPa | 0 mm | - | 61 W/m² | - |
| 1777466163 | 8.33° C | 96% | 1010 hPa | 0 mm | - | 45 W/m² | - |
| 1777465860 | 8.33° C | 96% | 1010.2 hPa | 0 mm | - | 34 W/m² | - |
* Rain latest hour (hover to see other rain measurements)
** Current wind speed in m/s (hover to see current wind gust speed)